�������l�o���
Date,Time,MP-1(��Sv/h),MP-2(��Sv/h),MP-3(��Sv/h),MP-4(��Sv/h),MP-5(��Sv/h),MP-6(��Sv/h),MP-7(��Sv/h),MP-8(��Sv/h),����,����(m/s),���J
2018/07/12,00:00,0.876,1.260,0.872,1.563,1.102,0.477,0.833,0.788,�k,3.7,�L
2018/07/12,00:10,0.876,1.260,0.876,1.563,1.105,0.480,0.831,0.787,�k,3.7,��
2018/07/12,00:20,0.876,1.257,0.873,1.563,1.104,0.478,0.832,0.788,�k,3.7,��
2018/07/12,00:30,0.873,1.257,0.873,1.563,1.104,0.478,0.833,0.788,�k,2.3,��
2018/07/12,00:40,0.874,1.258,0.874,1.564,1.103,0.478,0.831,0.787,�k�k��,3.1,��
2018/07/12,00:50,0.876,1.259,0.873,1.564,1.103,0.479,0.832,0.789,�k�k��,2.8,��
2018/07/12,01:00,0.875,1.260,0.873,1.562,1.104,0.478,0.831,0.789,�k��,1.7,��
2018/07/12,01:10,0.875,1.259,0.873,1.562,1.103,0.477,0.831,0.790,��,0.9,��
2018/07/12,01:20,0.876,1.258,0.872,1.561,1.103,0.478,0.832,0.789,�k,0.6,��
2018/07/12,01:30,0.875,1.259,0.873,1.563,1.103,0.478,0.830,0.788,�k�k��,0.9,��
2018/07/12,01:40,0.874,1.256,0.875,1.563,1.103,0.477,0.832,0.789,���k��,1.2,��
2018/07/12,01:50,0.877,1.258,0.872,1.562,1.103,0.478,0.831,0.789,��,0.9,��
2018/07/12,02:00,0.876,1.258,0.872,1.564,1.104,0.479,0.831,0.789,��,0.6,��
2018/07/12,02:10,0.876,1.257,0.873,1.565,1.104,0.477,0.832,0.787,�쓌,0.9,��
2018/07/12,02:20,0.876,1.258,0.873,1.562,1.101,0.479,0.831,0.789,���쓌,0.9,��
2018/07/12,02:30,0.875,1.259,0.873,1.563,1.106,0.476,0.831,0.789,���쓌,1.2,��
2018/07/12,02:40,0.875,1.256,0.873,1.561,1.102,0.477,0.830,0.788,���쓌,0.6,��
2018/07/12,02:50,0.873,1.260,0.875,1.562,1.102,0.480,0.832,0.788,�쓌,1.5,��
2018/07/12,03:00,0.874,1.261,0.873,1.565,1.101,0.480,0.831,0.789,���쓌,1.5,��
2018/07/12,03:10,0.875,1.259,0.875,1.563,1.103,0.477,0.830,0.790,�쓌,1.7,��
2018/07/12,03:20,0.874,1.257,0.874,1.561,1.103,0.477,0.831,0.789,�쓌,1.1,��
2018/07/12,03:30,0.874,1.255,0.872,1.564,1.102,0.477,0.830,0.788,�쓌,1.4,��
2018/07/12,03:40,0.874,1.259,0.874,1.561,1.102,0.478,0.833,0.788,�쓌,1.4,��
2018/07/12,03:50,0.876,1.259,0.874,1.562,1.105,0.478,0.831,0.790,��쓌,1.4,��
2018/07/12,04:00,0.875,1.258,0.875,1.562,1.103,0.477,0.829,0.788,��,0.9,��
2018/07/12,04:10,0.875,1.259,0.875,1.561,1.101,0.476,0.832,0.789,-,CALM,��
2018/07/12,04:20,0.874,1.260,0.873,1.562,1.102,0.477,0.831,0.789,��쓌,1.2,��
2018/07/12,04:30,0.877,1.259,0.873,1.563,1.103,0.477,0.832,0.790,��,1.5,��
2018/07/12,04:40,0.874,1.260,0.873,1.564,1.103,0.477,0.830,0.788,��,1.7,��
2018/07/12,04:50,0.875,1.259,0.873,1.563,1.102,0.478,0.831,0.789,��,2.0,��
2018/07/12,05:00,0.875,1.258,0.875,1.561,1.104,0.477,0.832,0.788,��쐼,1.2,��
2018/07/12,05:10,0.873,1.259,0.873,1.563,1.103,0.477,0.832,0.790,��,2.3,��
2018/07/12,05:20,0.876,1.259,0.875,1.561,1.102,0.477,0.830,0.790,��,2.0,��
2018/07/12,05:30,0.875,1.260,0.874,1.565,1.103,0.480,0.832,0.790,��,1.9,��
2018/07/12,05:40,0.873,1.259,0.874,1.564,1.104,0.478,0.831,0.788,��쓌,1.4,��
2018/07/12,05:50,0.874,1.259,0.873,1.562,1.101,0.477,0.833,0.791,��,2.6,��
2018/07/12,06:00,0.875,1.260,0.873,1.562,1.102,0.477,0.833,0.787,��,2.3,��
2018/07/12,06:10,0.875,1.261,0.873,1.564,1.104,0.476,0.832,0.789,��쓌,3.1,��
2018/07/12,06:20,0.874,1.261,0.873,1.565,1.102,0.477,0.832,0.790,��,2.8,��
2018/07/12,06:30,0.875,1.258,0.873,1.562,1.102,0.477,0.831,0.788,��쓌,3.1,��
2018/07/12,06:40,0.875,1.258,0.871,1.564,1.100,0.476,0.833,0.789,��,2.5,��
2018/07/12,06:50,0.877,1.257,0.872,1.563,1.104,0.476,0.831,0.790,��쓌,2.6,��
2018/07/12,07:00,0.874,1.256,0.872,1.563,1.101,0.476,0.832,0.789,��쓌,2.9,��
2018/07/12,07:10,0.875,1.258,0.872,1.564,1.102,0.477,0.833,0.790,��쓌,3.3,��
2018/07/12,07:20,0.877,1.261,0.871,1.565,1.102,0.477,0.831,0.789,��쓌,4.3,��
2018/07/12,07:30,0.875,1.259,0.873,1.563,1.102,0.476,0.832,0.789,��쓌,4.4,��
2018/07/12,07:40,0.874,1.257,0.873,1.564,1.103,0.478,0.832,0.788,��쓌,4.5,��
2018/07/12,07:50,0.875,1.258,0.873,1.564,1.102,0.478,0.829,0.788,��쓌,4.9,��
2018/07/12,08:00,0.874,1.257,0.871,1.565,1.103,0.477,0.829,0.786,��쓌,3.8,��
2018/07/12,08:10,0.875,1.260,0.872,1.567,1.103,0.476,0.830,0.785,��쓌,4.1,��
2018/07/12,08:20,0.874,1.257,0.874,1.567,1.104,0.476,0.831,0.784,��쓌,3.6,��
2018/07/12,08:30,0.876,1.258,0.871,1.566,1.103,0.476,0.830,0.785,��쓌,4.2,��
2018/07/12,08:40,0.875,1.260,0.872,1.566,1.106,0.476,0.831,0.787,��쓌,4.8,��
2018/07/12,08:50,0.875,1.261,0.872,1.568,1.105,0.477,0.832,0.783,��쓌,5.8,��
2018/07/12,09:00,0.876,1.260,0.875,1.565,1.107,0.478,0.831,0.787,��쓌,5.7,��
2018/07/12,09:10,0.877,1.258,0.874,1.566,1.107,0.478,0.829,0.786,��쓌,6.0,��
2018/07/12,09:20,0.878,1.256,0.875,1.567,1.106,0.478,0.832,0.788,��쓌,4.9,��
2018/07/12,09:30,0.874,1.259,0.873,1.567,1.107,0.477,0.832,0.789,��쓌,6.2,��
2018/07/12,09:40,0.877,1.259,0.873,1.569,1.107,0.479,0.831,0.786,��쓌,6.4,��
2018/07/12,09:50,0.878,1.259,0.873,1.569,1.106,0.479,0.831,0.786,��쓌,6.1,��
2018/07/12,10:00,0.877,1.260,0.874,1.567,1.108,0.479,0.830,0.786,��쓌,5.8,��
2018/07/12,10:10,0.879,1.261,0.875,1.570,1.106,0.481,0.832,0.787,��쓌,6.6,��
2018/07/12,10:20,0.875,1.262,0.874,1.566,1.109,0.479,0.832,0.785,��쓌,6.8,��
2018/07/12,10:30,0.874,1.263,0.874,1.569,1.110,0.479,0.833,0.788,��쓌,7.8,��
2018/07/12,10:40,0.877,1.260,0.874,1.569,1.107,0.480,0.833,0.787,��쓌,7.6,��
2018/07/12,10:50,0.879,1.261,0.875,1.568,1.112,0.479,0.832,0.787,��쓌,8.1,��
2018/07/12,11:00,0.876,1.266,0.876,1.566,1.110,0.479,0.832,0.789,��쓌,8.0,��
2018/07/12,11:10,0.878,1.264,0.876,1.567,1.111,0.480,0.830,0.787,��쓌,8.7,��
2018/07/12,11:20,0.875,1.267,0.877,1.567,1.111,0.482,0.833,0.788,��쓌,9.4,��
2018/07/12,11:30,0.873,1.263,0.876,1.566,1.111,0.479,0.832,0.786,��쓌,9.4,��
2018/07/12,11:40,0.872,1.265,0.876,1.565,1.111,0.479,0.833,0.787,��쓌,9.1,��
2018/07/12,11:50,0.879,1.262,0.876,1.567,1.112,0.480,0.834,0.788,��쓌,10.2,��
2018/07/12,12:00,0.879,1.259,0.876,1.569,1.113,0.479,0.835,0.790,��쓌,10.0,��
2018/07/12,12:10,0.881,1.265,0.876,1.569,1.113,0.482,0.834,0.787,��쓌,8.9,��
2018/07/12,12:20,0.880,1.267,0.878,1.567,1.113,0.479,0.831,0.788,��쓌,9.3,��
2018/07/12,12:30,0.881,1.264,0.877,1.567,1.112,0.479,0.833,0.789,��쓌,9.8,��
2018/07/12,12:40,0.879,1.266,0.876,1.565,1.111,0.480,0.833,0.790,��쓌,8.4,��
2018/07/12,12:50,0.879,1.268,0.877,1.566,1.113,0.479,0.835,0.789,��쓌,10.2,�L
2018/07/12,13:00,0.881,1.266,0.876,1.566,1.114,0.479,0.833,0.787,��쓌,9.5,�L
2018/07/12,13:10,0.880,1.265,0.876,1.566,1.111,0.480,0.835,0.789,��쓌,7.9,�L
2018/07/12,13:20,0.880,1.264,0.878,1.568,1.113,0.480,0.834,0.788,��쓌,8.5,�L
2018/07/12,13:30,0.881,1.263,0.876,1.568,1.114,0.481,0.833,0.789,��쓌,9.5,�L
2018/07/12,13:40,0.882,1.263,0.877,1.568,1.111,0.479,0.833,0.788,��쓌,9.2,�L
2018/07/12,13:50,0.880,1.265,0.875,1.569,1.111,0.479,0.833,0.789,��쓌,10.8,��
2018/07/12,14:00,0.882,1.265,0.877,1.570,1.113,0.478,0.833,0.790,��쓌,11.3,��
2018/07/12,14:10,0.881,1.266,0.878,1.568,1.114,0.480,0.835,0.789,��쓌,11.1,��
2018/07/12,14:20,0.880,1.269,0.878,1.568,1.114,0.480,0.836,0.787,��쓌,9.5,��
2018/07/12,14:30,0.881,1.270,0.877,1.570,1.114,0.480,0.835,0.789,��쓌,9.9,��
2018/07/12,14:40,0.882,1.267,0.878,1.570,1.114,0.479,0.835,0.788,��쓌,10.8,��
2018/07/12,14:50,0.882,1.267,0.878,1.570,1.114,0.480,0.835,0.789,��쓌,10.4,��
2018/07/12,15:00,0.880,1.271,0.878,1.572,1.114,0.479,0.833,0.787,��쓌,11.3,��
2018/07/12,15:10,0.882,1.266,0.878,1.567,1.115,0.480,0.833,0.788,��쓌,12.3,��
2018/07/12,15:20,0.881,1.269,0.876,1.568,1.117,0.480,0.834,0.789,��쓌,13.9,��
2018/07/12,15:30,0.883,1.268,0.879,1.570,1.115,0.481,0.834,0.787,��,11.6,��
2018/07/12,15:40,0.882,1.269,0.878,1.573,1.115,0.482,0.834,0.789,��쓌,12.5,��
2018/07/12,15:50,0.883,1.268,0.878,1.570,1.116,0.479,0.832,0.789,��쓌,11.2,��
2018/07/12,16:00,0.881,1.265,0.877,1.570,1.113,0.481,0.834,0.789,��쓌,9.8,��
2018/07/12,16:10,0.881,1.268,0.877,1.569,1.114,0.480,0.834,0.790,��쓌,10.5,��
2018/07/12,16:20,0.881,1.268,0.878,1.571,1.115,0.480,0.833,0.788,��쓌,12.2,��
2018/07/12,16:30,0.881,1.271,0.878,1.573,1.115,0.480,0.833,0.788,��쓌,11.0,��
2018/07/12,16:40,0.881,1.268,0.878,1.569,1.115,0.480,0.834,0.789,��,9.4,��
2018/07/12,16:50,0.881,1.266,0.877,1.570,1.118,0.481,0.836,0.788,��쓌,9.5,��
2018/07/12,17:00,0.881,1.269,0.877,1.571,1.114,0.479,0.835,0.789,��쓌,10.8,��
2018/07/12,17:10,0.880,1.267,0.877,1.572,1.114,0.480,0.835,0.789,��쓌,10.8,��
2018/07/12,17:20,0.880,1.268,0.876,1.574,1.114,0.478,0.834,0.791,��,11.6,��
2018/07/12,17:30,0.883,1.268,0.878,1.575,1.114,0.480,0.834,0.789,��쓌,11.3,��
2018/07/12,17:40,0.880,1.266,0.878,1.575,1.113,0.477,0.834,0.791,��,11.7,��
2018/07/12,17:50,0.881,1.268,0.878,1.574,1.115,0.480,0.835,0.791,��쓌,9.7,��
2018/07/12,18:00,0.881,1.268,0.880,1.575,1.114,0.480,0.834,0.791,��,7.3,��
2018/07/12,18:10,0.880,1.268,0.879,1.574,1.113,0.478,0.834,0.791,��,6.0,��
2018/07/12,18:20,0.880,1.270,0.878,1.575,1.113,0.479,0.834,0.794,��,7.5,��
2018/07/12,18:30,0.880,1.270,0.882,1.573,1.115,0.479,0.834,0.793,��,5.4,��
2018/07/12,18:40,0.880,1.269,0.882,1.571,1.116,0.480,0.836,0.793,��,3.6,��
2018/07/12,18:50,0.880,1.268,0.879,1.573,1.115,0.479,0.835,0.792,��쐼,2.3,��
2018/07/12,19:00,0.880,1.266,0.880,1.572,1.116,0.479,0.835,0.790,��쐼,2.8,��
2018/07/12,19:10,0.879,1.267,0.881,1.574,1.114,0.479,0.834,0.791,��쐼,3.8,��
2018/07/12,19:20,0.880,1.266,0.882,1.572,1.115,0.479,0.834,0.792,��쐼,4.0,��
2018/07/12,19:30,0.881,1.269,0.880,1.572,1.117,0.481,0.836,0.791,��,3.2,��
2018/07/12,19:40,0.881,1.268,0.884,1.572,1.117,0.481,0.836,0.792,��,3.1,��
2018/07/12,19:50,0.881,1.269,0.883,1.574,1.114,0.480,0.835,0.792,��,4.0,��
2018/07/12,20:00,0.880,1.268,0.880,1.572,1.119,0.481,0.835,0.791,��,4.0,��
2018/07/12,20:10,0.882,1.269,0.881,1.574,1.115,0.480,0.835,0.791,��,5.4,��
2018/07/12,20:20,0.882,1.269,0.882,1.575,1.116,0.480,0.836,0.791,��쐼,4.9,��
2018/07/12,20:30,0.881,1.270,0.883,1.573,1.113,0.480,0.835,0.791,��,5.8,��
2018/07/12,20:40,0.883,1.269,0.881,1.573,1.116,0.481,0.835,0.793,��,5.8,��
2018/07/12,20:50,0.880,1.272,0.883,1.574,1.114,0.482,0.835,0.791,��,6.7,��
2018/07/12,21:00,0.882,1.269,0.883,1.571,1.116,0.480,0.835,0.792,��,7.2,��
2018/07/12,21:10,0.883,1.266,0.882,1.574,1.117,0.482,0.835,0.791,��,6.6,��
2018/07/12,21:20,0.882,1.269,0.882,1.572,1.115,0.480,0.835,0.794,��,6.6,��
2018/07/12,21:30,0.883,1.269,0.880,1.572,1.114,0.482,0.835,0.792,��,5.9,��
2018/07/12,21:40,0.881,1.268,0.882,1.572,1.117,0.481,0.836,0.791,��,6.3,�L
2018/07/12,21:50,0.880,1.271,0.880,1.573,1.116,0.480,0.836,0.791,��,5.9,��
2018/07/12,22:00,0.882,1.267,0.882,1.575,1.115,0.480,0.837,0.792,��,6.6,��
2018/07/12,22:10,0.881,1.269,0.883,1.574,1.116,0.480,0.837,0.792,��,7.0,��
2018/07/12,22:20,0.880,1.269,0.881,1.576,1.116,0.479,0.836,0.792,��,6.8,��
2018/07/12,22:30,0.882,1.267,0.880,1.573,1.117,0.481,0.836,0.792,��,6.7,�L
2018/07/12,22:40,0.880,1.264,0.882,1.577,1.116,0.481,0.834,0.791,��,5.8,�L
2018/07/12,22:50,0.872,1.241,0.873,1.561,1.103,0.481,0.833,0.788,��,4.4,�L
2018/07/12,23:00,0.864,1.228,0.870,1.552,1.097,0.480,0.831,0.789,��쓌,4.9,�L
2018/07/12,23:10,0.867,1.228,0.868,1.550,1.093,0.481,0.828,0.787,��,5.6,�L
2018/07/12,23:20,0.865,1.225,0.866,1.547,1.093,0.478,0.828,0.786,��,5.4,�L
2018/07/12,23:30,0.863,1.222,0.866,1.545,1.087,0.478,0.828,0.787,��,5.8,�L
2018/07/12,23:40,0.861,1.220,0.864,1.537,1.080,0.476,0.826,0.783,��,6.1,�L
2018/07/12,23:50,0.863,1.220,0.865,1.535,1.079,0.477,0.825,0.783,��,5.7,�L
